Wind_Speed
30 30 30 31 31 30 31 30 31 29 29 28 28 27 26 25 26 26 26 26 26 25 25 26 26 27 26 24 24 24 23 24 24 24 23 22 23 22 22 22 22 22 22 22
31 31 32 32 32 31 31 30 30 30 30 29 29 28 27 26 26 26 27 27 26 26 26 25 26 26 25 25 24 24 24 25 25 25 25 25 24 23 23 24 23 23 23 23
32 33 33 33 32 32 31 31 30 30 30 29 28 28 27 27 28 28 27 27 26 25 25 25 25 25 25 24 24 24 24 25 26 27 26 26 26 24 24 24 24 24 24 24
31 32 34 34 33 32 32 32 31 30 30 29 28 28 28 28 28 28 28 27 26 26 26 26 25 25 24 25 25 24 24 25 27 28 28 27 26 25 25 25 25 25 24 24
31 32 33 32 32 32 31 31 30 31 30 30 28 28 28 29 29 28 29 28 27 26 26 26 26 25 25 25 25 25 24 25 26 26 26 26 26 26 26 25 25 25 25 25
30 31 32 31 31 31 32 31 30 30 30 30 30 30 29 29 30 29 29 29 28 27 27 27 27 26 26 26 26 25 25 25 25 26 26 26 26 27 27 26 25 25 25 24
29 30 31 30 30 30 31 30 30 29 29 30 30 31 30 30 30 29 28 28 28 28 28 28 28 28 28 28 27 26 26 26 26 26 26 26 27 26 27 27 26 26 25 25
28 29 29 29 29 29 29 30 30 30 30 30 31 32 31 30 29 28 28 28 29 29 28 28 28 28 28 28 26 25 25 25 25 25 25 26 26 25 26 27 26 26 26 26
27 27 27 27 28 28 28 28 29 30 30 31 31 31 30 30 29 29 29 29 28 28 28 28 27 27 27 26 25 24 24 25 25 25 25 24 25 25 26 26 25 26 26 26
26 26 25 26 26 27 28 28 28 29 30 31 30 30 29 29 29 29 29 28 28 27 27 26 25 26 26 26 25 23 24 24 25 24 24 25 25 25 25 25 26 26 26 26
25 25 26 26 26 27 28 29 28 28 28 28 28 28 28 26 25 25 25 26 26 26 25 25 25 25 25 25 24 24 24 24 25 25 25 24 24 25 25 25 26 26 26 26
23 24 25 25 26 26 26 26 26 27 26 25 25 25 25 25 24 24 23 23 24 24 24 25 24 24 24 25 25 25 23 23 23 24 23 24 24 24 25 25 25 27 27 27
23 23 23 23 23 24 24 24 25 25 24 23 23 23 23 23 23 23 22 22 23 22 22 23 23 23 23 24 24 24 23 23 23 23 23 23 24 24 24 24 25 26 26 26
22 23 23 22 22 22 22 22 23 24 24 24 24 23 23 22 22 22 21 21 21 21 21 21 21 22 22 22 22 22 22 22 23 23 23 23 24 24 25 25 25 25 25 26
21 22 21 21 21 21 21 21 22 23 24 24 24 24 23 22 22 21 21 21 20 20 20 20 20 21 22 22 22 22 21 21 21 21 22 23 24 24 25 24 24 24 24 25
20 20 20 20 21 20 19 19 20 21 21 21 22 22 21 21 20 19 19 20 19 19 19 20 20 21 21 22 23 22 21 21 21 21 21 21 23 24 24 24 24 24 24 25
18 18 18 19 20 20 19 19 19 19 19 19 19 19 19 19 18 17 18 19 19 19 19 19 20 20 20 21 23 22 22 23 22 21 21 21 22 23 24 24 24 24 24 24
18 18 18 18 18 18 18 19 18 18 18 18 18 19 18 18 17 17 18 18 18 18 19 19 19 20 20 22 23 23 22 22 22 22 22 22 22 23 23 24 24 24 24 24
16 16 17 16 16 17 16 16 16 16 16 17 19 18 17 17 17 17 17 17 18 18 19 19 19 20 20 21 21 21 21 22 23 23 23 24 24 24 24 24 25 25 26 26
16 16 16 16 16 16 16 15 15 14 13 14 14 15 16 15 16 16 16 15 16 17 18 18 19 19 19 19 20 21 22 23 23 23 24 25 25 25 25 25 26 26 26 26
15 15 15 14 15 15 15 14 15 15 14 13 13 13 15 15 15 16 15 15 15 17 18 18 19 19 19 19 20 21 22 23 23 24 24 25 25 25 25 26 26 26 26 26
14 13 14 14 14 13 13 13 14 14 14 14 14 14 14 14 14 15 15 16 16 17 18 19 20 20 21 22 22 22 23 23 23 23 24 25 25 25 25 25 26 25 25 25
13 13 13 13 14 13 13 13 13 13 14 15 14 14 14 13 13 14 15 16 17 17 17 18 20 21 23 23 23 23 22 22 22 23 24 25 25 25 25 25 25 24 24 24
12 12 13 14 13 13 13 13 13 14 14 14 14 14 14 14 14 15 16 16 17 17 17 19 20 21 22 22 23 23 22 22 22 23 23 24 24 25 25 25 24 24 24 24
13 14 14 14 13 13 12 12 13 14 14 15 15 15 15 14 15 15 15 16 16 17 18 19 20 20 20 21 22 22 22 22 22 23 23 23 24 24 24 24 24 24 24 24
13 13 12 12 12 12 11 11 12 12 13 14 15 16 16 16 16 16 17 17 17 17 18 19 20 21 21 21 21 21 22 22 23 23 23 23 23 23 23 23 23 24 24 24
11 11 11 11 11 11 11 12 12 12 12 14 16 16 17 17 17 17 17 17 17 18 19 19 20 20 20 20 20 21 21 21 22 23 23 23 23 23 23 23 23 24 24 24
Wind_Direction
254 255 255 257 258 260 262 265 267 268 269 270 270 271 269 268 270 271 272 272 273 273 274 273 272 272 271 272 273 275 274 271 270 270 271 271 268 268 272 275 276 275 276 276
255 257 257 257 258 261 263 266 267 267 268 270 270 271 271 269 269 271 272 271 273 275 275 274 274 274 272 271 273 274 273 270 271 271 271 270 268 268 267 269 272 272 273 275
256 257 260 259 260 261 261 264 266 267 270 272 272 271 269 268 269 272 272 271 271 272 274 274 274 273 272 271 271 272 272 272 272 270 268 267 268 270 268 268 268 270 271 272
259 259 260 262 262 262 263 264 265 267 269 271 272 271 269 268 270 271 271 270 268 269 272 273 272 271 271 271 271 273 274 274 273 269 267 266 267 269 268 268 268 269 270 272
260 260 262 263 263 264 265 265 266 267 268 270 271 270 270 270 270 271 270 269 267 269 271 272 271 269 269 271 271 273 273 273 271 269 265 265 266 267 266 266 268 269 271 272
261 263 264 264 264 264 265 265 266 266 268 268 268 268 269 270 270 269 269 269 269 268 270 270 271 270 268 269 269 270 270 271 270 269 267 266 267 267 264 264 267 270 270 272
261 263 263 263 264 266 265 265 265 266 267 267 268 268 269 270 270 270 268 268 269 268 269 269 269 268 267 267 267 267 268 269 269 268 267 266 267 267 264 263 264 268 269 272
261 264 264 264 264 265 265 265 265 266 267 268 269 270 269 268 268 269 269 269 270 269 268 267 267 266 266 266 266 267 267 268 269 269 267 266 266 264 264 263 263 267 268 271
262 264 264 264 264 264 265 266 266 267 268 268 268 268 268 267 267 268 269 268 269 270 269 266 265 264 265 266 266 265 265 266 267 267 266 266 265 265 266 267 267 269 270 272
264 265 264 264 263 263 264 266 266 267 266 266 266 265 266 267 267 268 268 268 267 267 267 266 265 265 264 265 266 265 265 266 266 264 265 266 267 266 267 268 269 270 272 274
264 263 263 264 263 263 265 266 267 268 267 267 267 266 265 266 267 267 266 266 265 265 265 265 264 263 262 261 262 262 262 265 266 266 267 267 268 268 268 269 270 272 273 274
265 265 265 264 262 261 262 264 265 267 267 268 268 265 265 264 265 265 264 265 265 264 264 264 263 263 260 260 262 262 261 263 266 267 266 268 269 270 271 272 272 273 275 276
270 270 270 268 267 263 261 262 264 265 265 266 268 266 265 265 265 265 264 262 262 261 263 262 261 261 261 262 264 262 264 266 266 267 268 271 270 270 271 273 275 277 278 278
271 271 272 272 270 266 264 262 261 261 263 265 265 266 267 266 265 264 263 262 262 262 262 261 262 261 261 265 266 265 266 268 269 269 270 272 273 272 273 277 278 278 279 280
272 271 271 269 269 269 267 263 264 263 263 264 263 266 267 267 265 263 261 261 263 264 260 259 261 262 263 264 265 266 268 270 271 272 275 276 276 277 278 279 279 278 280 283
272 270 270 269 268 268 268 267 265 265 266 267 264 264 267 267 265 261 260 259 261 261 259 259 261 263 265 265 264 264 267 270 271 273 279 279 278 279 280 281 283 282 283 285
273 271 269 270 268 267 266 266 268 267 267 268 267 265 266 264 263 264 262 260 259 259 257 259 262 264 265 266 265 265 268 271 271 273 278 279 281 282 281 279 283 283 283 284
276 270 269 270 267 264 265 266 270 270 268 266 267 266 262 263 262 264 267 263 259 259 258 258 261 267 269 268 266 266 266 269 273 275 276 279 282 282 281 280 281 283 283 283
274 273 271 267 266 267 267 267 270 273 273 268 264 263 262 262 264 265 266 264 260 257 258 261 265 270 273 272 270 270 271 272 274 276 278 280 281 282 282 282 283 284 284 284
278 277 273 267 266 267 269 270 271 273 276 273 266 262 263 268 268 268 268 266 261 260 263 265 268 272 274 274 275 275 275 273 275 277 280 282 283 283 283 283 284 284 285 285
276 272 270 270 266 267 272 274 275 277 279 275 272 275 276 275 271 267 267 267 265 266 266 268 270 271 275 277 277 278 279 278 277 277 279 282 284 284 285 284 284 285 285 285
271 271 271 273 273 276 276 276 276 274 276 275 274 279 282 278 273 269 267 268 269 270 270 270 272 274 278 279 279 280 280 280 278 279 280 282 284 285 287 286 285 285 285 285
274 273 274 275 277 279 280 279 277 275 275 274 273 275 276 277 272 267 269 270 271 273 274 274 275 278 280 280 280 281 280 280 279 280 281 282 283 284 286 287 286 286 286 286
274 275 277 277 276 276 278 279 277 276 274 273 273 273 274 275 274 270 270 271 273 277 279 279 280 282 281 280 280 279 279 279 279 281 282 283 284 285 286 287 287 287 287 288
278 277 276 275 274 278 283 282 280 277 274 275 276 278 279 278 278 279 278 279 279 280 281 282 284 285 284 283 281 281 280 279 280 282 283 285 286 287 287 288 287 286 287 289
282 280 279 277 275 275 276 278 280 280 279 276 278 283 284 285 284 284 285 285 285 286 286 286 286 285 284 285 284 283 282 282 283 284 285 286 286 286 285 285 285 286 288 288
286 284 282 279 275 272 271 270 270 274 277 278 281 283 284 284 285 286 286 286 287 288 288 288 288 286 287 288 289 288 285 284 285 286 288 288 287 286 286 286 287 288 288 288
Height
5756 5758 5760 5761 5763 5764 5765 5765 5766 5768 5768 5769 5769 5770 5770 5770 5770 5770 5770 5769 5769 5769 5769 5769 5768 5768 5768 5768 5767 5767 5766 5767 5767 5767 5767 5767 5766 5767 5766 5766 5766 5765 5765 5764
5748 5750 5751 5753 5755 5756 5757 5758 5759 5759 5761 5762 5762 5762 5762 5763 5763 5762 5762 5762 5762 5762 5762 5761 5761 5760 5760 5760 5760 5760 5760 5760 5759 5759 5759 5759 5759 5759 5760 5759 5759 5759 5758 5758
5740 5741 5742 5744 5747 5748 5749 5750 5751 5751 5754 5754 5754 5754 5755 5755 5755 5755 5754 5754 5754 5754 5754 5753 5753 5753 5752 5753 5753 5753 5753 5752 5752 5751 5751 5751 5752 5752 5752 5752 5752 5752 5751 5751
5731 5733 5733 5738 5738 5739 5740 5742 5743 5743 5744 5745 5746 5746 5746 5746 5747 5747 5746 5746 5746 5746 5746 5745 5745 5745 5745 5745 5745 5745 5745 5744 5744 5744 5743 5743 5744 5744 5745 5745 5744 5744 5744 5744
5722 5723 5724 5728 5729 5730 5732 5733 5734 5734 5735 5736 5736 5737 5737 5738 5738 5738 5738 5738 5738 5738 5737 5737 5737 5737 5737 5737 5737 5737 5737 5736 5736 5735 5735 5735 5736 5737 5737 5737 5737 5737 5736 5736
5714 5715 5716 5720 5721 5721 5723 5724 5726 5726 5726 5727 5728 5728 5730 5729 5729 5729 5729 5729 5729 5729 5729 5729 5729 5729 5729 5729 5729 5729 5729 5729 5728 5728 5727 5727 5728 5728 5729 5729 5729 5729 5728 5728
5707 5707 5708 5711 5712 5714 5716 5717 5717 5717 5718 5718 5719 5720 5721 5720 5720 5720 5720 5720 5720 5720 5721 5721 5720 5721 5721 5721 5721 5721 5721 5720 5720 5720 5720 5720 5720 5719 5720 5720 5721 5721 5721 5720
5699 5700 5703 5703 5704 5706 5707 5707 5708 5708 5709 5709 5710 5710 5710 5711 5711 5712 5712 5712 5711 5711 5712 5712 5712 5712 5712 5712 5712 5712 5712 5712 5712 5712 5712 5712 5711 5711 5712 5711 5712 5712 5712 5712
5693 5695 5694 5695 5696 5697 5698 5699 5699 5700 5700 5700 5701 5701 5701 5702 5702 5703 5703 5703 5703 5703 5703 5703 5703 5703 5704 5703 5703 5704 5704 5704 5704 5704 5704 5704 5704 5703 5704 5703 5703 5704 5704 5704
5685 5686 5686 5687 5688 5689 5690 5690 5691 5691 5691 5691 5691 5692 5692 5693 5693 5693 5693 5694 5694 5694 5694 5695 5695 5695 5696 5696 5696 5696 5696 5696 5696 5696 5696 5696 5696 5696 5695 5695 5696 5696 5696 5696
5677 5679 5679 5680 5680 5681 5682 5682 5683 5683 5683 5682 5683 5683 5683 5684 5684 5684 5684 5685 5685 5685 5686 5686 5687 5687 5688 5688 5689 5689 5689 5688 5688 5688 5688 5688 5688 5688 5687 5687 5687 5688 5687 5687
5671 5671 5671 5672 5672 5672 5673 5674 5675 5675 5675 5675 5674 5675 5675 5676 5676 5676 5676 5677 5677 5677 5678 5678 5679 5679 5680 5680 5681 5681 5681 5681 5681 5681 5680 5681 5681 5681 5680 5680 5679 5679 5679 5679
5663 5663 5663 5664 5664 5664 5665 5666 5667 5667 5667 5667 5667 5667 5667 5668 5668 5668 5668 5668 5669 5669 5670 5671 5672 5672 5672 5673 5673 5674 5674 5674 5674 5674 5673 5673 5674 5673 5673 5672 5671 5671 5670 5670
5657 5657 5657 5657 5657 5658 5658 5658 5659 5659 5660 5660 5660 5660 5660 5660 5661 5661 5661 5661 5662 5662 5663 5663 5664 5665 5665 5666 5666 5667 5667 5667 5667 5667 5667 5666 5666 5666 5665 5665 5664 5663 5662 5662
5650 5650 5650 5650 5651 5651 5651 5651 5652 5652 5653 5653 5653 5653 5652 5652 5652 5653 5653 5654 5654 5655 5656 5657 5658 5659 5659 5660 5660 5660 5661 5661 5660 5660 5660 5659 5659 5658 5657 5657 5656 5656 5655 5654
5644 5643 5643 5644 5644 5645 5645 5645 5645 5646 5646 5646 5646 5645 5645 5645 5644 5645 5646 5647 5647 5648 5649 5650 5651 5652 5653 5653 5654 5654 5654 5654 5654 5653 5653 5652 5652 5651 5650 5649 5648 5648 5647 5646
5638 5638 5638 5638 5638 5638 5638 5639 5639 5639 5639 5639 5639 5639 5639 5639 5639 5639 5640 5640 5641 5642 5643 5644 5645 5645 5646 5647 5646 5647 5647 5648 5647 5647 5647 5646 5645 5644 5643 5642 5641 5640 5639 5637
5632 5632 5632 5632 5632 5632 5632 5633 5632 5633 5633 5633 5633 5633 5634 5634 5634 5634 5634 5634 5634 5635 5636 5637 5638 5639 5639 5639 5640 5640 5640 5641 5641 5640 5640 5639 5638 5637 5636 5635 5633 5632 5631 5629
5627 5626 5626 5626 5626 5626 5627 5627 5627 5627 5627 5627 5627 5627 5628 5628 5628 5628 5628 5628 5629 5630 5631 5631 5632 5633 5633 5633 5633 5633 5633 5633 5633 5633 5632 5632 5631 5630 5628 5627 5625 5624 5623 5621
5622 5621 5621 5621 5621 5621 5621 5621 5621 5622 5621 5621 5621 5622 5622 5623 5623 5623 5623 5623 5623 5624 5625 5625 5626 5626 5626 5626 5626 5626 5626 5626 5625 5625 5624 5624 5623 5622 5620 5619 5617 5616 5615 5613
5616 5616 5616 5616 5616 5617 5617 5616 5617 5617 5617 5616 5617 5617 5618 5617 5617 5617 5618 5618 5618 5619 5619 5620 5620 5620 5620 5619 5619 5619 5618 5618 5618 5617 5617 5616 5615 5613 5612 5610 5609 5608 5606 5605
5612 5612 5612 5612 5612 5612 5612 5612 5612 5612 5612 5612 5613 5613 5613 5612 5612 5612 5613 5613 5613 5613 5613 5613 5613 5613 5613 5612 5612 5611 5611 5610 5610 5609 5609 5608 5606 5605 5604 5602 5601 5599 5598 5597
5608 5608 5608 5608 5608 5608 5608 5608 5608 5608 5608 5608 5608 5609 5608 5608 5608 5608 5608 5608 5608 5608 5608 5607 5607 5606 5606 5605 5605 5604 5604 5603 5602 5602 5601 5600 5598 5597 5596 5594 5593 5591 5590 5589
5605 5604 5604 5604 5604 5604 5605 5604 5604 5604 5604 5604 5605 5604 5604 5604 5604 5603 5603 5603 5603 5602 5602 5602 5601 5600 5599 5598 5598 5597 5596 5596 5595 5594 5593 5592 5590 5589 5588 5586 5585 5584 5582 5581
5601 5601 5601 5601 5601 5601 5601 5601 5601 5601 5601 5601 5601 5600 5600 5600 5600 5599 5599 5598 5598 5597 5596 5596 5595 5594 5593 5592 5591 5590 5589 5588 5587 5586 5585 5584 5583 5582 5580 5579 5577 5576 5575 5574
5598 5597 5597 5597 5597 5597 5597 5597 5597 5597 5597 5597 5596 5596 5596 5595 5595 5594 5594 5593 5592 5592 5591 5590 5589 5587 5586 5585 5584 5583 5582 5581 5579 5579 5577 5576 5575 5574 5572 5571 5570 5568 5567 5565
5595 5594 5594 5593 5593 5593 5593 5593 5594 5594 5593 5593 5592 5592 5591 5591 5590 5590 5589 5588 5587 5586 5585 5583 5582 5581 5580 5578 5577 5576 5574 5573 5572 5571 5570 5569 5567 5566 5565 5563 5562 5560 5559 5557